Weather Service Report


965 
ASUS41 KPHI 110612
RWRPHI

REGIONAL WEATHER ROUNDUP
NATIONAL WEATHER SERVICE MOUNT HOLLY NJ
100 AM EST SUN DEC 11 2016

NOTE:  "FAIR" INDICATES FEW OR NO CLOUDS BELOW 12,000 FEET WITH NO
SIGNIFICANT WEATHER AND/OR OBSTRUCTIONS TO VISIBILITY.

 * = STATION DOES NOT REPORT PRECIPITATION (E.G. RAIN, SNOW, ETC.) 
        OR FOG.

NJZ015>026-110700-
SOUTHERN NEW JERSEY
  
CITY           SKY/WX    TMP DP  RH WIND       PRES   REMARKS
POMONA         CLEAR     24  14  65 W3        30.50F                  
6HR MIN TEMP:  24; 6HR MAX TEMP:  33;                                

WILDWOOD*      CLEAR     31  17  56 N6        30.51F WCI  25          
MILLVILLE      PTCLDY    17  15  92 CALM      30.51R                  
WRIGHTSTOWN    PTCLDY    26  16  65 W3        30.46S                  
MOUNT HOLLY    PTCLDY    27  14  58 NW5       30.50S WCI  22          
TRENTON        PTCLDY    26  15  63 NW5       30.47F WCI  20          
6HR MIN TEMP:  26; 6HR MAX TEMP:  31;                                


$$
NJZ001>014-110700-
NORTHERN NEW JERSEY
  
CITY           SKY/WX    TMP DP  RH WIND       PRES   REMARKS
SUSSEX         CLEAR     15  13  91 CALM      30.43S                  
ANDOVER*         N/A     18  14  84 S3        30.45R                  
MORRISTOWN     PTCLDY    21  18  86 CALM      30.47S                  
NEWARK         PTCLDY    27  16  63 SW6       30.48R WCI  20          
TETERBORO      CLEAR     26  16  65 CALM      30.47R                  
CALDWELL       CLEAR     24  16  71 CALM      30.47S                  
SOMERVILLE     CLEAR     19  14  81 CALM      30.47R                  
ALLAIRE*       PTCLDY    24  17  74 W7        30.49S WCI  16          
TOMS RIVER*    CLEAR     20  17  88 CALM      30.49S                  

$$
PAZ043-044-047-054-055-060>062-066>071-110700-
EASTERN PENNSYLVANIA
  
CITY           SKY/WX    TMP DP  RH WIND       PRES   REMARKS
PHILADELPHIA   PTCLDY    28  15  58 W5        30.51S WCI  23          
6HR MIN TEMP:  26; 6HR MAX TEMP:  33;                                

NORTH PHILA    CLOUDY    28  16  60 W5        30.50S WCI  23          
BLUE BELL*     CLOUDY    27  18  69 CALM      30.47S                  
DOYLESTOWN     CLOUDY    26  16  65 W3        30.46S                  
QUAKERTOWN*    CLOUDY    25  16  68 CALM      30.46F                  
PERKASIE*      FAIR      25  16  68 NW6       30.46F WCI  18          
POTTSTOWN      PTCLDY    23  15  71 CALM      30.49F                  
LANCASTER      CLEAR     22  16  78 W6        30.49S WCI  14          
COATESVILLE    CLEAR     23  16  74 W5        30.47F WCI  17          
READING        PTCLDY    22  16  78 CALM      30.48S                  
6HR MIN TEMP:  22; 6HR MAX TEMP:  28;                                

ALLENTOWN      PTCLDY    22  14  71 S3        30.46F                  
6HR MIN TEMP:  19; 6HR MAX TEMP:  28;                                

MOUNT POCONO   CLEAR     15  11  83 W8        30.34S WCI   4          
6HR MIN TEMP:  15; 6HR MAX TEMP:  20;                                

HAZLETON       CLEAR     19  14  79 W6        30.41S WCI  11          
LEHIGHTON        N/A     19  18  93 CALM      30.47S                  
WILKES BARRE   MOCLDY    22  15  75 SW3       30.42S                  

$$
DEZALL-MDZ008-012-015-019-020-110700-
DELAWARE AND EASTERN MARYLAND
  
CITY           SKY/WX    TMP DP  RH WIND       PRES   REMARKS
WILMINGTON     CLEAR     24  14  65 NW6       30.51S WCI  17          
6HR MIN TEMP:  23; 6HR MAX TEMP:  30;                                

DOVER          CLEAR     26  17  71 W5        30.51R WCI  20          
GEORGETOWN     PTCLDY    25  17  72 CALM      30.53S                  
6HR MIN TEMP:  23; 6HR MAX TEMP:  31;                                

EASTON         CLEAR     27  16  62 CALM      30.56R                  
ABERDEEN       CLOUDY    26  14  62 CALM      30.52S                  
PATUXENT       CLOUDY    31  14  49 NW10      30.54R WCI  22          
OCEAN CITY     CLEAR     23  15  71 CALM      30.52F                  
WALLOPS ISLAND CLEAR     24  20  84 NW3       30.53F                  
CAMBRIDGE      PTCLDY    25  19  80 CALM      30.53R                  
SALISBURY      PTCLDY    23  18  81 CALM      30.53S                  

$$
PAZ001-021-NYZ056-072-MDZ011-DCZ001-110700-
OTHER NEARBY LOCATIONS
  
CITY           SKY/WX    TMP DP  RH WIND       PRES   REMARKS
HARRISBURG     MOCLDY    26  16  65 CALM      30.49S                  
STATE COLLEGE  PTCLDY    20  15  81 SW7       30.42R WCI  11          
WILLIAMSPORT   CLOUDY    23  16  74 W6        30.45F WCI  16          
BINGHAMTON     CLOUDY    16  13  88 SW8       30.33S WCI   5          
NEW YORK CITY    N/A     29  16  58 CALM      30.48R                  
BALTIMORE      CLOUDY    25  15  66 W3        30.51S                  
WASHINGTON DC  CLOUDY    30  14  51 N3        30.53F                  

$$
  

Return to Home page


Western Regional Climate Center, wrcc@dri.edu